﻿測定場所 (Monitoring sites),日付 (Measurement date),時間 (Measurement time),線量率 最大値 (max) μGy/h,線量率 最小値 (min) μGy/h,線量率 平均値 (average) μGy/h,
江戸川 (Edogawa),2012-12-16,23:01～24:00,0.104,0.0922,0.0976,
江戸川 (Edogawa),2012-12-16,22:01～23:00,0.103,0.0908,0.0973,
江戸川 (Edogawa),2012-12-16,21:01～22:00,0.102,0.0907,0.0968,
江戸川 (Edogawa),2012-12-16,20:01～21:00,0.103,0.0916,0.0974,
江戸川 (Edogawa),2012-12-16,19:01～20:00,0.103,0.0934,0.0982,
江戸川 (Edogawa),2012-12-16,18:01～19:00,0.102,0.0912,0.0975,
江戸川 (Edogawa),2012-12-16,17:01～18:00,0.103,0.0923,0.0972,
江戸川 (Edogawa),2012-12-16,16:01～17:00,0.106,0.0936,0.0979,
江戸川 (Edogawa),2012-12-16,15:01～16:00,0.104,0.0903,0.0979,
江戸川 (Edogawa),2012-12-16,14:01～15:00,0.104,0.0944,0.0984,
江戸川 (Edogawa),2012-12-16,13:01～14:00,0.101,0.0933,0.0980,
江戸川 (Edogawa),2012-12-16,12:01～13:00,0.105,0.0922,0.0986,
江戸川 (Edogawa),2012-12-16,11:01～12:00,0.102,0.0882,0.0977,
江戸川 (Edogawa),2012-12-16,10:01～11:00,0.102,0.0921,0.0974,
江戸川 (Edogawa),2012-12-16,09:01～10:00,0.103,0.0928,0.0976,
江戸川 (Edogawa),2012-12-16,08:01～09:00,0.103,0.0904,0.0965,
江戸川 (Edogawa),2012-12-16,07:01～08:00,0.102,0.0911,0.0968,
江戸川 (Edogawa),2012-12-16,06:01～07:00,0.105,0.0913,0.0970,
江戸川 (Edogawa),2012-12-16,05:01～06:00,0.104,0.0911,0.0984,
江戸川 (Edogawa),2012-12-16,04:01～05:00,0.106,0.0940,0.100,
江戸川 (Edogawa),2012-12-16,03:01～04:00,0.118,0.0992,0.107,
江戸川 (Edogawa),2012-12-16,02:01～03:00,0.118,0.103,0.110,
江戸川 (Edogawa),2012-12-16,01:01～02:00,0.117,0.0969,0.106,
江戸川 (Edogawa),2012-12-16,00:01～01:00,0.103,0.0911,0.0979,
江戸川 (Edogawa),2012-12-15,23:01～24:00,0.104,0.0917,0.0977,
江戸川 (Edogawa),2012-12-15,22:01～23:00,0.102,0.0908,0.0976,
江戸川 (Edogawa),2012-12-15,21:01～22:00,0.105,0.0929,0.0979,
江戸川 (Edogawa),2012-12-15,20:01～21:00,0.102,0.0910,0.0975,
江戸川 (Edogawa),2012-12-15,19:01～20:00,0.104,0.0902,0.0977,
江戸川 (Edogawa),2012-12-15,18:01～19:00,0.102,0.0932,0.0975,
江戸川 (Edogawa),2012-12-15,17:01～18:00,0.102,0.0922,0.0965,
江戸川 (Edogawa),2012-12-15,16:01～17:00,0.103,0.0901,0.0976,
江戸川 (Edogawa),2012-12-15,15:01～16:00,0.105,0.0933,0.100,
江戸川 (Edogawa),2012-12-15,14:01～15:00,0.106,0.0899,0.102,
江戸川 (Edogawa),2012-12-15,13:01～14:00,0.106,0.0963,0.102,
江戸川 (Edogawa),2012-12-15,12:01～13:00,0.106,0.0942,0.100,
江戸川 (Edogawa),2012-12-15,11:01～12:00,0.106,0.0956,0.100,
江戸川 (Edogawa),2012-12-15,10:01～11:00,0.106,0.0932,0.0990,
江戸川 (Edogawa),2012-12-15,09:01～10:00,0.105,0.0921,0.0989,
江戸川 (Edogawa),2012-12-15,08:01～09:00,0.105,0.0942,0.0987,
江戸川 (Edogawa),2012-12-15,07:01～08:00,0.105,0.0931,0.0988,
江戸川 (Edogawa),2012-12-15,06:01～07:00,0.103,0.0918,0.0982,
江戸川 (Edogawa),2012-12-15,05:01～06:00,0.104,0.0917,0.0989,
江戸川 (Edogawa),2012-12-15,04:01～05:00,0.108,0.0938,0.0997,
江戸川 (Edogawa),2012-12-15,03:01～04:00,0.109,0.0968,0.102,
江戸川 (Edogawa),2012-12-15,02:01～03:00,0.107,0.0957,0.101,
江戸川 (Edogawa),2012-12-15,01:01～02:00,0.107,0.0903,0.0988,
江戸川 (Edogawa),2012-12-15,00:01～01:00,0.104,0.0920,0.0983,
江戸川 (Edogawa),2012-12-14,23:01～24:00,0.103,0.0909,0.0980,
江戸川 (Edogawa),2012-12-14,22:01～23:00,0.104,0.0931,0.0978,
江戸川 (Edogawa),2012-12-14,21:01～22:00,0.104,0.0921,0.0981,
江戸川 (Edogawa),2012-12-14,20:01～21:00,0.111,0.0936,0.0990,
江戸川 (Edogawa),2012-12-14,19:01～20:00,0.106,0.0915,0.0985,
江戸川 (Edogawa),2012-12-14,18:01～19:00,0.103,0.0920,0.0979,
江戸川 (Edogawa),2012-12-14,17:01～18:00,0.104,0.0932,0.0981,
江戸川 (Edogawa),2012-12-14,16:01～17:00,0.107,0.0907,0.0989,
江戸川 (Edogawa),2012-12-14,15:01～16:00,0.106,0.0913,0.0987,
江戸川 (Edogawa),2012-12-14,14:01～15:00,0.104,0.0941,0.0990,
江戸川 (Edogawa),2012-12-14,13:01～14:00,0.104,0.0938,0.0990,
江戸川 (Edogawa),2012-12-14,12:01～13:00,0.105,0.0948,0.0997,
江戸川 (Edogawa),2012-12-14,11:01～12:00,0.106,0.0933,0.0999,
江戸川 (Edogawa),2012-12-14,10:01～11:00,0.104,0.0922,0.0983,
江戸川 (Edogawa),2012-12-14,09:01～10:00,0.103,0.0933,0.0986,
江戸川 (Edogawa),2012-12-14,08:01～09:00,0.105,0.0917,0.0975,
江戸川 (Edogawa),2012-12-14,07:01～08:00,0.103,0.0927,0.0975,
江戸川 (Edogawa),2012-12-14,06:01～07:00,0.103,0.0915,0.0980,
江戸川 (Edogawa),2012-12-14,05:01～06:00,0.101,0.0912,0.0971,
江戸川 (Edogawa),2012-12-14,04:01～05:00,0.103,0.0913,0.0974,
江戸川 (Edogawa),2012-12-14,03:01～04:00,0.102,0.0903,0.0966,
江戸川 (Edogawa),2012-12-14,02:01～03:00,0.101,0.0908,0.0965,
江戸川 (Edogawa),2012-12-14,01:01～02:00,0.103,0.0907,0.0971,
江戸川 (Edogawa),2012-12-14,00:01～01:00,0.104,0.0905,0.0966,
江戸川 (Edogawa),2012-12-13,23:01～24:00,0.103,0.0931,0.0972,
江戸川 (Edogawa),2012-12-13,22:01～23:00,0.107,0.0928,0.0977,
江戸川 (Edogawa),2012-12-13,21:01～22:00,0.105,0.0912,0.0968,
江戸川 (Edogawa),2012-12-13,20:01～21:00,0.102,0.0920,0.0974,
江戸川 (Edogawa),2012-12-13,19:01～20:00,0.103,0.0931,0.0976,
江戸川 (Edogawa),2012-12-13,18:01～19:00,0.103,0.0904,0.0967,
江戸川 (Edogawa),2012-12-13,17:01～18:00,0.104,0.0892,0.0973,
江戸川 (Edogawa),2012-12-13,16:01～17:00,0.105,0.0901,0.0979,
江戸川 (Edogawa),2012-12-13,15:01～16:00,0.103,0.0920,0.0978,
江戸川 (Edogawa),2012-12-13,14:01～15:00,0.104,0.0910,0.0980,
江戸川 (Edogawa),2012-12-13,13:01～14:00,0.105,0.0923,0.0978,
江戸川 (Edogawa),2012-12-13,12:01～13:00,0.102,0.0928,0.0981,
江戸川 (Edogawa),2012-12-13,11:01～12:00,0.101,0.0918,0.0978,
江戸川 (Edogawa),2012-12-13,10:01～11:00,0.104,0.0941,0.0982,
江戸川 (Edogawa),2012-12-13,09:01～10:00,0.105,0.0913,0.0980,
江戸川 (Edogawa),2012-12-13,08:01～09:00,0.104,0.0917,0.0975,
江戸川 (Edogawa),2012-12-13,07:01～08:00,0.104,0.0893,0.0965,
江戸川 (Edogawa),2012-12-13,06:01～07:00,0.102,0.0905,0.0969,
江戸川 (Edogawa),2012-12-13,05:01～06:00,0.104,0.0917,0.0972,
江戸川 (Edogawa),2012-12-13,04:01～05:00,0.103,0.0903,0.0968,
江戸川 (Edogawa),2012-12-13,03:01～04:00,0.103,0.0926,0.0974,
江戸川 (Edogawa),2012-12-13,02:01～03:00,0.102,0.0912,0.0977,
江戸川 (Edogawa),2012-12-13,01:01～02:00,0.103,0.0910,0.0977,
江戸川 (Edogawa),2012-12-13,00:01～01:00,0.102,0.0894,0.0974,
江戸川 (Edogawa),2012-12-12,23:01～24:00,0.101,0.0909,0.0971,
江戸川 (Edogawa),2012-12-12,22:01～23:00,0.102,0.0913,0.0974,
江戸川 (Edogawa),2012-12-12,21:01～22:00,0.104,0.0912,0.0975,
江戸川 (Edogawa),2012-12-12,20:01～21:00,0.106,0.0909,0.0973,
江戸川 (Edogawa),2012-12-12,19:01～20:00,0.103,0.0901,0.0975,
江戸川 (Edogawa),2012-12-12,18:01～19:00,0.102,0.0928,0.0973,
江戸川 (Edogawa),2012-12-12,17:01～18:00,0.100,0.0931,0.0980,
江戸川 (Edogawa),2012-12-12,16:01～17:00,0.103,0.0920,0.0984,
江戸川 (Edogawa),2012-12-12,15:01～16:00,0.108,0.0917,0.0987,
江戸川 (Edogawa),2012-12-12,14:01～15:00,0.103,0.0921,0.0981,
江戸川 (Edogawa),2012-12-12,13:01～14:00,0.104,0.0928,0.0985,
江戸川 (Edogawa),2012-12-12,12:01～13:00,0.106,0.0926,0.0993,
江戸川 (Edogawa),2012-12-12,11:01～12:00,0.106,0.0922,0.0983,
江戸川 (Edogawa),2012-12-12,10:01～11:00,0.104,0.0929,0.0984,
江戸川 (Edogawa),2012-12-12,09:01～10:00,0.105,0.0893,0.0984,
江戸川 (Edogawa),2012-12-12,08:01～09:00,0.102,0.0924,0.0979,
江戸川 (Edogawa),2012-12-12,07:01～08:00,0.104,0.0876,0.0974,
江戸川 (Edogawa),2012-12-12,06:01～07:00,0.103,0.0918,0.0973,
江戸川 (Edogawa),2012-12-12,05:01～06:00,0.103,0.0918,0.0972,
江戸川 (Edogawa),2012-12-12,04:01～05:00,0.105,0.0921,0.0979,
江戸川 (Edogawa),2012-12-12,03:01～04:00,0.104,0.0921,0.0979,
江戸川 (Edogawa),2012-12-12,02:01～03:00,0.104,0.0921,0.0982,
江戸川 (Edogawa),2012-12-12,01:01～02:00,0.102,0.0893,0.0970,
江戸川 (Edogawa),2012-12-12,00:01～01:00,0.104,0.0896,0.0975,
江戸川 (Edogawa),2012-12-11,23:01～24:00,0.103,0.0926,0.0980,
江戸川 (Edogawa),2012-12-11,22:01～23:00,0.103,0.0938,0.0978,
江戸川 (Edogawa),2012-12-11,21:01～22:00,0.106,0.0920,0.0981,
江戸川 (Edogawa),2012-12-11,20:01～21:00,0.104,0.0936,0.0980,
江戸川 (Edogawa),2012-12-11,19:01～20:00,0.104,0.0924,0.0977,
江戸川 (Edogawa),2012-12-11,18:01～19:00,0.102,0.0927,0.0980,
江戸川 (Edogawa),2012-12-11,17:01～18:00,0.102,0.0917,0.0980,
江戸川 (Edogawa),2012-12-11,16:01～17:00,0.106,0.0938,0.0991,
江戸川 (Edogawa),2012-12-11,15:01～16:00,0.105,0.0930,0.0988,
江戸川 (Edogawa),2012-12-11,14:01～15:00,0.104,0.0924,0.0997,
江戸川 (Edogawa),2012-12-11,13:01～14:00,0.106,0.0916,0.0998,
江戸川 (Edogawa),2012-12-11,12:01～13:00,0.103,0.0943,0.0993,
江戸川 (Edogawa),2012-12-11,11:01～12:00,0.108,0.0933,0.0992,
江戸川 (Edogawa),2012-12-11,10:01～11:00,0.106,0.0921,0.0988,
江戸川 (Edogawa),2012-12-11,09:01～10:00,0.103,0.0933,0.0979,
江戸川 (Edogawa),2012-12-11,08:01～09:00,0.105,0.0910,0.0982,
江戸川 (Edogawa),2012-12-11,07:01～08:00,0.106,0.0929,0.0982,
江戸川 (Edogawa),2012-12-11,06:01～07:00,0.103,0.0902,0.0976,
江戸川 (Edogawa),2012-12-11,05:01～06:00,0.103,0.0929,0.0976,
江戸川 (Edogawa),2012-12-11,04:01～05:00,0.104,0.0906,0.0971,
江戸川 (Edogawa),2012-12-11,03:01～04:00,0.105,0.0910,0.0972,
江戸川 (Edogawa),2012-12-11,02:01～03:00,0.104,0.0913,0.0974,
江戸川 (Edogawa),2012-12-11,01:01～02:00,0.103,0.0906,0.0970,
江戸川 (Edogawa),2012-12-11,00:01～01:00,0.103,0.0914,0.0972,
江戸川 (Edogawa),2012-12-10,23:01～24:00,0.103,0.0922,0.0972,
江戸川 (Edogawa),2012-12-10,22:01～23:00,0.102,0.0921,0.0977,
江戸川 (Edogawa),2012-12-10,21:01～22:00,0.103,0.0913,0.0975,
江戸川 (Edogawa),2012-12-10,20:01～21:00,0.106,0.0923,0.0979,
江戸川 (Edogawa),2012-12-10,19:01～20:00,0.105,0.0918,0.0984,
江戸川 (Edogawa),2012-12-10,18:01～19:00,0.104,0.0934,0.0983,
江戸川 (Edogawa),2012-12-10,17:01～18:00,0.104,0.0928,0.0983,
江戸川 (Edogawa),2012-12-10,16:01～17:00,0.104,0.0922,0.0980,
江戸川 (Edogawa),2012-12-10,15:01～16:00,0.104,0.0940,0.0989,
江戸川 (Edogawa),2012-12-10,14:01～15:00,0.106,0.0923,0.0993,
江戸川 (Edogawa),2012-12-10,13:01～14:00,0.103,0.0945,0.0985,
江戸川 (Edogawa),2012-12-10,12:01～13:00,0.105,0.0934,0.0999,
江戸川 (Edogawa),2012-12-10,11:01～12:00,0.104,0.0925,0.0983,
江戸川 (Edogawa),2012-12-10,10:01～11:00,0.106,0.0893,0.0986,
江戸川 (Edogawa),2012-12-10,09:01～10:00,0.105,0.0936,0.0984,
江戸川 (Edogawa),2012-12-10,08:01～09:00,0.104,0.0894,0.0974,
江戸川 (Edogawa),2012-12-10,07:01～08:00,0.105,0.0915,0.0971,
江戸川 (Edogawa),2012-12-10,06:01～07:00,0.103,0.0919,0.0975,
江戸川 (Edogawa),2012-12-10,05:01～06:00,0.102,0.0913,0.0975,
江戸川 (Edogawa),2012-12-10,04:01～05:00,0.102,0.0924,0.0976,
江戸川 (Edogawa),2012-12-10,03:01～04:00,0.103,0.0932,0.0980,
江戸川 (Edogawa),2012-12-10,02:01～03:00,0.101,0.0904,0.0967,
江戸川 (Edogawa),2012-12-10,01:01～02:00,0.105,0.0909,0.0974,
江戸川 (Edogawa),2012-12-10,00:01～01:00,0.104,0.0916,0.0981,
